(369543) = 2011 AK18

Discovered at Mount Lemmon on 2005-10-29 by Mt. Lemmon Survey.

Orbit

Orbit type: Main Belt

Note: WebGL enabled browser required.

epoch2023-09-13.0
epoch JD2460200.5
perihelion date2021-01-26.69965
perihelion JD2459241.19965
argument of perihelion (°)157.47238
ascending node (°)324.24118
inclination (°)8.50689
eccentricity0.0737134
perihelion distance (AU)2.7098297
Tisserand w.r.t. Jupiter3.3
ΔV w.r.t. Earth (km/sec)10.6
semimajor axis (AU)2.9254766
mean anomaly (°)188.95722
mean daily motion (°/day)0.19697400
aphelion distance (AU)3.141
period (years)5.0
P-vector [x]-0.52813612
P-vector [y]0.75480733
P-vector [z]0.38902202
Q-vector [x]-0.84474813
Q-vector [y]-0.42037678
Q-vector [z]-0.33118569
absolute magnitude16.84
phase slope0.15
uncertainty0
referenceMPEC 2023-O83
observations used170
oppositions12
arc length (days)8188
first opposition used2001
last opposition used2023
residual rms (arc-secs)0.72
perturbers coarse indicatorM-v
perturbers precise indicator003Ek
first observation date used2001-02-22.0
last observation date used2023-07-25.0
computer nameMPCLINUX
JD of orbit computation2456966.790527
perihelion JD uncertainty (days)1.8819E-04
argument of perihelion uncertainty (°)5.7589E-05
ascending node uncertainty (°)4.7176E-05
inclination uncertainty (°)1.6427E-05
eccentricity uncertainty 1.7670E-07
perihelion distance uncertainty (AU)5.3042E-07
Minimum Orbit Intersection Distances (in AU)
for orbit epoch: 2460200.5, reference: E2023-O83
Mercury2.37847
Venus1.9914
Earth1.72598
Mars1.05987
Jupiter1.90717
Saturn6.34792
Uranus15.6808
Neptune26.8759

Observations

170 total observations over interval: 2001 02 22.12646 – 2023 07 25.386378
These data are available for download (format description).

Date (UT) J2000 RA J2000 Dec Magn Location Ref
2001 02 22.12646 08 15 51.17 +22 33 03.5 21.4 V 691 – Steward Observatory, Kitt Peak-Spacewatch MPS 369663
2001 02 22.14882 08 15 50.26 +22 33 01.1 21.7 V 691 – Steward Observatory, Kitt Peak-Spacewatch MPS 369663
2001 02 22.17124 08 15 49.43 +22 32 58.8 22.3 V 691 – Steward Observatory, Kitt Peak-Spacewatch MPS 369663
2005 10 29.48591 08 41 51.25 +24 16 15.2 21.2 V G96 – Mt. Lemmon Survey MPS 369663
2005 10 29.49220 08 41 51.54 +24 16 13.9 21.5 V G96 – Mt. Lemmon Survey MPS 369663
2005 10 29.49845 08 41 51.86 +24 16 13.0 22.0 V G96 – Mt. Lemmon Survey MPS 369663
2005 10 29.50490 08 41 52.22 +24 16 11.7 21.6 V G96 – Mt. Lemmon Survey MPS 369663
2006 01 28.28200 08 29 39.66 +23 30 52.6 20.4 V G96 – Mt. Lemmon Survey MPS 368645
2006 01 28.28747 08 29 39.30 +23 30 52.5 20.3 V G96 – Mt. Lemmon Survey MPS 368645
2006 01 28.29294 08 29 38.97 +23 30 52.7 20.5 V G96 – Mt. Lemmon Survey MPS 368645
2006 01 28.29841 08 29 38.68 +23 30 52.9 20.5 V G96 – Mt. Lemmon Survey MPS 368645
2006 02 06.12152 08 21 08.12 +23 29 48.9   691 – Steward Observatory, Kitt Peak-Spacewatch MPS 368645
2006 02 06.13879 08 21 07.13 +23 29 48.3   691 – Steward Observatory, Kitt Peak-Spacewatch MPS 368645
2006 02 06.15613 08 21 06.15 +23 29 48.3   691 – Steward Observatory, Kitt Peak-Spacewatch MPS 368645
2011 01 08.33503 08 38 13.59 +24 16 45.7 20.8 V G96 – Mt. Lemmon Survey MPS 365821
2011 01 08.34203 08 38 13.20 +24 16 46.3 20.4 V G96 – Mt. Lemmon Survey MPS 365821
2011 01 08.34905 08 38 12.76 +24 16 46.5 20.5 V G96 – Mt. Lemmon Survey MPS 365821
2011 01 08.35603 08 38 12.44 +24 16 47.1 20.6 V G96 – Mt. Lemmon Survey MPS 365821
2011 01 08.39619 08 38 10.28 +24 16 49.5 20.2 V G96 – Mt. Lemmon Survey MPS 365821
2011 01 08.40377 08 38 09.92 +24 16 49.9 20.5 V G96 – Mt. Lemmon Survey MPS 365821
2011 01 08.41137 08 38 09.49 +24 16 50.5 20.7 V G96 – Mt. Lemmon Survey MPS 365821
2011 01 09.29516 08 37 23.62 +24 17 44.8 21.0 V G96 – Mt. Lemmon Survey MPS 365821
2011 01 09.30137 08 37 23.26 +24 17 45.3 20.6 V G96 – Mt. Lemmon Survey MPS 365821
2011 01 09.30760 08 37 22.90 +24 17 45.8 20.8 V G96 – Mt. Lemmon Survey MPS 365821
2011 01 09.31387 08 37 22.58 +24 17 46.4 20.6 V G96 – Mt. Lemmon Survey MPS 365821
2011 01 29.22468 08 18 01.76 +24 28 15.3 20.1 V G96 – Mt. Lemmon Survey MPS 368645
2011 01 29.23052 08 18 01.40 +24 28 15.2 20.3 V G96 – Mt. Lemmon Survey MPS 368645
2011 01 29.23637 08 18 01.04 +24 28 15.3 20.2 V G96 – Mt. Lemmon Survey MPS 368645
2011 01 29.24216 08 18 00.68 +24 28 15.0 20.4 V G96 – Mt. Lemmon Survey MPS 368645
2011 01 30.46832 08 16 48.036 +24 27 59.98 20.8 w F51 – Pan-STARRS 1, Haleakala MPS 378776
2011 01 30.48353 08 16 47.106 +24 27 59.74 20.9 w F51 – Pan-STARRS 1, Haleakala MPS 378776
2011 01 30.49982 08 16 46.124 +24 27 59.26 20.8 w F51 – Pan-STARRS 1, Haleakala MPS 378776
2011 01 30.51490 08 16 45.211 +24 27 58.94 20.8 w F51 – Pan-STARRS 1, Haleakala MPS 378776
2013 07 13.46037 20 35 15.800 -23 53 39.59 21.3 w F51 – Pan-STARRS 1, Haleakala MPS 472136
2013 07 13.47420 20 35 15.072 -23 53 40.77 21.3 w F51 – Pan-STARRS 1, Haleakala MPS 472136
2013 07 13.47486 20 35 15.031 -23 53 40.82 21.5 w F51 – Pan-STARRS 1, Haleakala MPS 472136
2013 07 13.49376 20 35 14.035 -23 53 42.31 21.4 w F51 – Pan-STARRS 1, Haleakala MPS 472136
2013 07 13.49442 20 35 14.008 -23 53 42.34 21.2 w F51 – Pan-STARRS 1, Haleakala MPS 472136
2013 07 13.50837 20 35 13.284 -23 53 43.66 21.3 w F51 – Pan-STARRS 1, Haleakala MPS 472136
2013 07 13.50903 20 35 13.246 -23 53 43.59 21.2 w F51 – Pan-STARRS 1, Haleakala MPS 472136
2013 08 02.40832 20 17 21.055 -24 12 43.71 21.2 w F51 – Pan-STARRS 1, Haleakala MPS 473049
2013 08 02.42197 20 17 20.297 -24 12 44.01 21.2 w F51 – Pan-STARRS 1, Haleakala MPS 473049
2013 08 02.43561 20 17 19.528 -24 12 44.45 21.1 w F51 – Pan-STARRS 1, Haleakala MPS 473049
2014 10 14.38222 01 04 41.62 +18 35 17.9 20.3 V G96 – Mt. Lemmon Survey MPS 540391
2014 10 14.38980 01 04 41.22 +18 35 15.9 20.3 V G96 – Mt. Lemmon Survey MPS 540391
2014 10 14.39739 01 04 40.80 +18 35 14.7 20.7 V G96 – Mt. Lemmon Survey MPS 540391
2014 10 14.40498 01 04 40.40 +18 35 13.2 20.6 V G96 – Mt. Lemmon Survey MPS 540391
2014 11 17.20935 00 41 46.140 +16 08 04.38 21.5 w F51 – Pan-STARRS 1, Haleakala MPS 547549
2014 11 17.21966 00 41 45.905 +16 08 02.23 21.2 w F51 – Pan-STARRS 1, Haleakala MPS 547549
2014 11 17.22993 00 41 45.679 +16 07 59.39 21.1 w F51 – Pan-STARRS 1, Haleakala MPS 547549
2014 11 17.24015 00 41 45.439 +16 07 57.08 21.6 w F51 – Pan-STARRS 1, Haleakala MPS 547549
2016 01 03.41940 08 36 50.911 +24 44 11.45 20.6 w F51 – Pan-STARRS 1, Haleakala MPS 668155
2016 01 03.43103 08 36 50.355 +24 44 12.25 20.5 w F51 – Pan-STARRS 1, Haleakala MPS 668155
2016 01 03.44266 08 36 49.786 +24 44 13.04 20.7 w F51 – Pan-STARRS 1, Haleakala MPS 668155
2016 01 03.45435 08 36 49.218 +24 44 13.82 20.7 w F51 – Pan-STARRS 1, Haleakala MPS 668155
2016 01 07.39295 08 33 34.823 +24 48 21.64 20.7 w F51 – Pan-STARRS 1, Haleakala MPS 668155
2016 01 07.40543 08 33 34.161 +24 48 22.45 20.6 w F51 – Pan-STARRS 1, Haleakala MPS 668155
2016 01 07.43038 08 33 32.822 +24 48 23.97 20.6 w F51 – Pan-STARRS 1, Haleakala MPS 668155
2016 01 14.51289 08 27 02.524 +24 54 46.36 20.6 w F51 – Pan-STARRS 1, Haleakala MPS 671592
2016 01 14.52645 08 27 01.710 +24 54 46.87 20.7 w F51 – Pan-STARRS 1, Haleakala MPS 671592
2016 01 14.53998 08 27 00.900 +24 54 47.47 20.5 w F51 – Pan-STARRS 1, Haleakala MPS 671592
2016 01 14.55365 08 27 00.084 +24 54 47.99 20.7 w F51 – Pan-STARRS 1, Haleakala MPS 671592
2016 01 30.34001 08 11 16.71 +24 57 54.5 20.0 V G96 – Mt. Lemmon Survey MPS 678794
2016 01 30.34643 08 11 16.31 +24 57 54.4 19.9 V G96 – Mt. Lemmon Survey MPS 678794
2016 01 30.35284 08 11 15.95 +24 57 54.1 20.6 V G96 – Mt. Lemmon Survey MPS 678794
2016 01 30.35925 08 11 15.56 +24 57 54.1 20.5 V G96 – Mt. Lemmon Survey MPS 678794
2016 02 05.29075 08 05 40.103 +24 53 38.49 20.6 w F51 – Pan-STARRS 1, Haleakala MPS 682271
2016 02 05.30498 08 05 39.319 +24 53 37.77 20.7 w F51 – Pan-STARRS 1, Haleakala MPS 682271
2016 02 05.31927 08 05 38.515 +24 53 37.04 20.6 w F51 – Pan-STARRS 1, Haleakala MPS 682271
2016 02 05.33383 08 05 37.708 +24 53 36.18 20.8 w F51 – Pan-STARRS 1, Haleakala MPS 682271
2016 02 10.28321 08 01 22.271 +24 47 32.13 20.8 w F51 – Pan-STARRS 1, Haleakala MPS 682271
2016 02 10.29631 08 01 21.607 +24 47 31.04 20.9 w F51 – Pan-STARRS 1, Haleakala MPS 682271
2016 02 10.30953 08 01 20.943 +24 47 30.01 20.8 w F51 – Pan-STARRS 1, Haleakala MPS 682271
2016 02 10.32303 08 01 20.255 +24 47 28.84 20.8 w F51 – Pan-STARRS 1, Haleakala MPS 682271
2016 03 27.14319 07 51 58.62 +22 30 14.4 21.8 V G96 – Mt. Lemmon Survey MPS 698505
2016 03 27.14928 07 51 58.76 +22 30 12.9 21.8 V G96 – Mt. Lemmon Survey MPS 698505
2016 03 27.15537 07 51 58.88 +22 30 11.3 21.6 V G96 – Mt. Lemmon Survey MPS 698505
2016 03 27.16146 07 51 59.08 +22 30 09.7 21.4 V G96 – Mt. Lemmon Survey MPS 698505
2016 04 02.27352 07 54 58.242 +22 04 21.67 21.8 w F51 – Pan-STARRS 1, Haleakala MPS 700978
2016 04 02.28612 07 54 58.641 +22 04 18.43 21.8 w F51 – Pan-STARRS 1, Haleakala MPS 700978
2016 04 02.29878 07 54 59.065 +22 04 14.84 21.8 w F51 – Pan-STARRS 1, Haleakala MPS 700978
2017 03 29.49105 14 43 16.717 -27 40 06.20 20.8 w F51 – Pan-STARRS 1, Haleakala MPS 784797
2017 03 29.50199 14 43 16.339 -27 40 07.34 21.0 w F51 – Pan-STARRS 1, Haleakala MPS 784797
2017 03 29.51301 14 43 15.963 -27 40 08.43 21.2 w F51 – Pan-STARRS 1, Haleakala MPS 784797
2017 03 29.52398 14 43 15.620 -27 40 09.18 21.0 w F51 – Pan-STARRS 1, Haleakala MPS 784797
2017 05 21.35210 14 01 31.041 -25 33 42.56 21.1 w F51 – Pan-STARRS 1, Haleakala MPS 799249
2017 05 21.36221 14 01 30.626 -25 33 39.35 20.9 w F51 – Pan-STARRS 1, Haleakala MPS 799249
2017 05 21.37232 14 01 30.193 -25 33 36.58 21.1 w F51 – Pan-STARRS 1, Haleakala MPS 799249
2017 05 21.38244 14 01 29.808 -25 33 33.41 20.9 w F51 – Pan-STARRS 1, Haleakala MPS 799249
2018 08 07.37167 20 09 09.613 -24 32 27.05 21.2 w F51 – Pan-STARRS 1, Haleakala MPS 909634
2018 08 07.39689 20 09 08.288 -24 32 27.11 21.4 w F51 – Pan-STARRS 1, Haleakala MPS 909634
2018 08 14.34421 20 03 32.383 -24 30 11.22 21.7 w F51 – Pan-STARRS 1, Haleakala MPS 910819
